This is the latest recevied weather packets stored in our database for station/object WC4PEM-1. If no packets are shown the sender has not sent any weather packets the latest 10 day(s).
| Time | Temp. | Humidity | Pressure | Rain* | Wind** | Luminosity | Snow |
|---|---|---|---|---|---|---|---|
| 1777574017 | 33.33° C | 42% | 1010.1 hPa | 0 mm | - | 1046 W/m² | - |
| 1777573717 | 33.33° C | 44% | 1010.3 hPa | 0 mm | - | 1000 W/m² | - |
| 1777573605 | 33.33° C | 40% | 1010.2 hPa | 0 mm | - | 236 W/m² | - |
| 1777573425 | 33.33° C | 40% | 1010.2 hPa | 0 mm | - | 1020 W/m² | - |
| 1777573417 | 33.33° C | 40% | 1010.2 hPa | 0 mm | - | 236 W/m² | - |
| 1777573117 | 33.33° C | 40% | 1010.2 hPa | 0 mm | - | 1020 W/m² | - |
| 1777572817 | 33.33° C | 40% | 1010.2 hPa | 0 mm | - | 967 W/m² | - |
| 1777572736 | 32.22° C | 42% | 1010.3 hPa | 0 mm | - | 958 W/m² | - |
| 1777572677 | 32.78° C | 41% | 1010.1 hPa | 0 mm | - | 986 W/m² | - |
| 1777572517 | 32.78° C | 41% | 1010.1 hPa | 0 mm | - | 986 W/m² | - |
| 1777572296 | 32.22° C | 42% | 1010.3 hPa | 0 mm | - | 958 W/m² | - |
| 1777572217 | 32.22° C | 42% | 1010.3 hPa | 0 mm | - | 958 W/m² | - |
| 1777571917 | 31.67° C | 43% | 1010.3 hPa | 0 mm | - | 988 W/m² | - |
| 1777571617 | 32.22° C | 41% | 1010.4 hPa | 0 mm | - | 1028 W/m² | - |
| 1777571345 | 32.22° C | 41% | 1010.5 hPa | 0 mm | - | 979 W/m² | - |
| 1777571317 | 32.78° C | 42% | 1010.4 hPa | 0 mm | - | 983 W/m² | - |
| 1777571017 | 32.22° C | 41% | 1010.5 hPa | 0 mm | - | 979 W/m² | - |
| 1777570717 | 31.67° C | 44% | 1010.8 hPa | 0 mm | - | 1000 W/m² | - |
| 1777570417 | 31.67° C | 46% | 1010.8 hPa | 0 mm | - | 1069 W/m² | - |
| 1777570117 | 31.67° C | 47% | 1010.9 hPa | 0 mm | - | 1053 W/m² | - |
| 1777569817 | 31.11° C | 50% | 1010.8 hPa | 0 mm | - | 1020 W/m² | - |
| 1777569517 | 30.56° C | 49% | 1010.8 hPa | 0 mm | - | 223 W/m² | - |
| 1777569217 | 30.56° C | 51% | 1010.9 hPa | 0 mm | - | 1027 W/m² | - |
| 1777569106 | 30° C | 51% | 1010.8 hPa | 0 mm | - | 998 W/m² | - |
| 1777568917 | 30° C | 51% | 1010.8 hPa | 0 mm | - | 998 W/m² | - |
* Rain latest hour (hover to see other rain measurements)
** Current wind speed in m/s (hover to see current wind gust speed)